Stations météo

réclame
Mon MeteoGroup
Lille, France (7015): Température de l'air & dewpoint: 07.08.2020 22:00:00 - 13.08.2020 22:00:00 (CEST)Lille, France (7015): Température de l'air 5cm: 07.08.2020 22:00:00 - 13.08.2020 22:00:00 (CEST)Lille, France (7015): Température de l'air -20cm & Température de l'air -100cm: 07.08.2020 22:00:00 - 13.08.2020 22:00:00 (CEST)Lille, France (7015): Vitesse du vent & gusts: 07.08.2020 22:00:00 - 13.08.2020 22:00:00 (CEST)Lille, France (7015): Direction du vent: 07.08.2020 22:00:00 - 13.08.2020 22:00:00 (CEST)Lille, France (7015): reduced air pressure: 07.08.2020 22:00:00 - 13.08.2020 22:00:00 (CEST)Lille, France (7015): visibility: 07.08.2020 22:00:00 - 13.08.2020 22:00:00 (CEST)Lille, France (7015): Quantités de précipitations: 07.08.2020 22:00:00 - 13.08.2020 22:00:00 (CEST)
Date & Time tt [°C] td [°C] tt 5cm [°C] tt -20cm [°C] tt -100cm [°C] ff [km/h] ff [knt] fx [km/h] fx [knt] dd ppp [hPa] vv [km] rr [mm]
13.08.2020 22:00:00 - - - - - - - - - - - - -
13.08.2020 21:00:00 23,0 20,7 21,6 29,0 20,5 10 6 36 19 NNE 1011,7 9 2,8
13.08.2020 20:00:00 27,5 19,6 23,7 29,6 20,5 16 9 23 12 NE 1010,9 17 0,0
13.08.2020 19:00:00 30,6 15,8 30,6 29,7 20,5 7 4 23 12 SE 1010,5 38 0,0
13.08.2020 18:00:00 30,2 17,0 32,2 29,4 20,4 12 7 28 15 SSW 1010,8 30 0,0
13.08.2020 17:00:00 30,3 17,7 32,7 29,1 20,4 12 7 32 17 W 1011,0 28 0,0
13.08.2020 16:00:00 30,1 17,5 31,7 28,6 20,4 16 8 40 21 SW 1011,5 33 0,0
13.08.2020 15:00:00 29,7 16,5 31,7 28,1 20,4 17 9 30 16 SW 1011,6 31 0,0
13.08.2020 14:00:00 30,5 17,2 35,5 27,0 20,4 14 8 33 18 SSW 1011,6 47 0,0
13.08.2020 13:00:00 29,5 16,7 34,2 26,0 20,4 14 7 26 14 SSW 1011,5 60 0,0
13.08.2020 12:00:00 28,1 16,7 32,9 25,1 20,4 8 4 21 11 SSE 1011,5 60 0,0
13.08.2020 11:00:00 26,6 16,2 30,0 24,5 20,4 7 4 22 12 SW 1011,9 60 0,0
13.08.2020 10:00:00 25,3 16,7 26,4 24,2 20,4 8 5 14 7 WSW 1011,9 60 0,0
13.08.2020 09:00:00 23,3 17,1 23,4 24,1 20,4 8 4 18 10 WSW 1011,8 32 0,0
13.08.2020 08:00:00 21,4 18,0 19,7 24,3 20,4 11 6 19 10 SSW 1012,0 23 0,0
13.08.2020 07:00:00 19,9 16,7 19,3 24,6 20,4 7 4 13 7 SSE 1011,3 31 0,0
13.08.2020 06:00:00 21,8 16,3 20,5 25,0 20,4 5 3 19 11 S 1010,7 42 0,0
13.08.2020 05:00:00 22,9 16,7 20,0 25,3 20,3 10 5 29 16 N 1010,7 52 0,0
13.08.2020 04:00:00 22,9 16,7 22,1 25,7 20,3 13 7 35 19 W 1011,4 40 0,0
13.08.2020 03:00:00 23,3 16,3 22,6 26,0 20,3 25 14 50 27 WNW 1011,7 51 0,0
13.08.2020 02:00:00 23,6 16,1 23,3 26,5 20,3 26 14 48 26 WSW 1012,4 40 0,0
13.08.2020 01:00:00 25,0 18,0 24,4 26,9 20,3 21 11 42 23 WNW 1011,6 10 0,0
13.08.2020 00:00:00 27,2 18,2 25,7 27,4 20,3 11 6 16 9 N 1010,8 19 0,0
12.08.2020 23:00:00 27,5 18,2 25,2 28,0 20,3 10 6 14 7 NNE 1011,1 21 0,0
12.08.2020 22:00:00 28,5 18,0 25,8 28,6 20,3 4 2 10 5 NNW 1011,3 21 0,0
12.08.2020 21:00:00 29,9 17,4 28,6 29,2 20,3 3 2 16 9 ESE 1010,9 23 0,0
12.08.2020 20:00:00 32,6 15,6 33,5 29,6 20,2 5 3 22 12 ENE 1010,9 21 0,0
12.08.2020 19:00:00 32,6 17,2 36,9 29,6 20,2 11 6 22 12 NNE 1010,3 14 0,0
12.08.2020 18:00:00 33,4 17,6 37,8 29,2 20,2 8 5 18 10 ENE 1010,6 14 0,0
12.08.2020 17:00:00 33,7 17,0 37,5 28,4 20,2 6 3 18 10 WNW 1011,6 19 0,0
12.08.2020 16:00:00 32,9 17,1 36,0 27,7 20,2 6 3 20 11 SSE 1012,2 17 0,0
12.08.2020 15:00:00 32,7 17,3 35,4 27,0 20,2 5 3 17 9 NW 1012,7 16 0,0
12.08.2020 14:00:00 32,0 17,1 35,7 26,3 20,2 9 5 21 11 E 1013,0 17 0,0
12.08.2020 13:00:00 31,7 17,2 37,0 25,4 20,2 6 4 21 11 NE 1013,1 20 0,0
12.08.2020 12:00:00 30,1 18,2 32,1 24,7 20,2 11 6 20 11 N 1013,2 15 0,0
12.08.2020 11:00:00 27,6 18,6 28,6 24,4 20,2 14 8 21 11 NNE 1013,1 10 0,0
12.08.2020 10:00:00 25,7 18,4 25,5 24,2 20,2 9 5 24 13 N 1013,2 9 0,0
12.08.2020 09:00:00 24,3 18,0 24,9 24,2 20,2 16 8 23 12 WNW 1013,5 9 0,0
12.08.2020 08:00:00 24,4 18,1 22,3 24,2 20,2 12 7 19 10 W 1013,5 14 0,0
12.08.2020 07:00:00 21,7 17,7 19,3 24,5 20,2 6 4 10 5 SSW 1013,6 8 0,0
12.08.2020 06:00:00 21,2 17,2 20,4 24,8 20,2 8 4 11 6 S 1013,5 7 0,0
12.08.2020 05:00:00 22,8 17,5 21,1 25,1 20,2 4 2 15 8 NNE 1013,3 9 0,0
12.08.2020 04:00:00 23,1 17,6 19,7 25,5 20,1 10 5 19 11 NE 1013,9 9 0,0
12.08.2020 03:00:00 22,7 17,4 20,2 26,0 20,1 4 2 7 4 E 1013,3 7 0,0
12.08.2020 02:00:00 23,5 17,3 21,0 26,5 20,1 4 2 9 5 S 1013,6 8 0,0
12.08.2020 01:00:00 25,2 17,9 22,6 27,0 20,1 3 1 17 9 WNW 1013,7 10 0,0
12.08.2020 00:00:00 26,7 17,2 24,9 27,5 20,1 5 3 28 15 N 1014,2 17 0,0
11.08.2020 23:00:00 28,1 16,4 27,6 28,1 20,1 18 10 26 14 NNE 1013,8 32 0,0
11.08.2020 22:00:00 29,2 15,3 28,2 28,8 20,1 11 6 24 13 ENE 1013,7 38 0,0
11.08.2020 21:00:00 30,8 15,6 30,2 29,5 20,1 10 5 21 11 NE 1013,3 35 0,0
11.08.2020 20:00:00 32,3 15,8 33,1 30,0 20,1 11 6 19 10 E 1012,9 27 0,0
11.08.2020 19:00:00 33,5 15,9 37,3 30,1 20,1 10 5 24 13 E 1012,6 41 0,0
11.08.2020 18:00:00 33,9 15,4 38,7 29,9 20,1 9 5 23 12 ENE 1012,4 28 0,0
11.08.2020 17:00:00 34,4 15,3 39,9 29,3 20,0 11 6 25 14 NNE 1013,0 22 0,0
11.08.2020 16:00:00 34,5 14,4 39,8 28,3 20,1 10 6 24 13 ESE 1013,4 41 0,0
11.08.2020 15:00:00 33,8 14,8 38,9 27,1 20,0 9 5 27 15 E 1014,0 43 0,0
11.08.2020 14:00:00 32,8 15,8 39,3 25,9 20,0 8 5 21 12 E 1014,3 46 0,0
11.08.2020 13:00:00 31,9 15,8 36,7 24,8 20,0 7 4 17 9 NE 1014,3 43 0,0
11.08.2020 12:00:00 29,8 16,9 29,2 24,0 20,0 8 4 13 7 ENE 1014,4 51 0,0
11.08.2020 11:00:00 26,2 17,8 26,8 23,6 20,0 5 3 10 5 SE 1014,5 25 0,0
11.08.2020 10:00:00 24,8 18,3 25,4 23,5 20,0 5 3 8 4 SE 1014,6 20 0,0
11.08.2020 09:00:00 23,7 17,4 23,2 23,4 20,0 0 0 5 3 N 1014,4 29 0,0
11.08.2020 08:00:00 22,4 17,3 21,5 23,5 20,0 2 1 11 6 E 1013,9 24 0,0
11.08.2020 07:00:00 22,4 16,7 21,5 23,7 20,0 5 3 14 8 S 1013,4 22 0,0
11.08.2020 06:00:00 22,5 16,8 19,7 24,0 20,0 5 3 8 4 W 1013,2 26 0,0
11.08.2020 05:00:00 22,2 16,2 19,9 24,3 19,9 3 1 7 4 E 1013,5 24 0,0
11.08.2020 04:00:00 22,7 15,8 20,2 24,7 19,9 6 3 9 5 ESE 1013,4 7 0,0
11.08.2020 03:00:00 23,9 16,2 21,6 25,0 19,9 7 4 14 7 N 1013,2 38 0,0
11.08.2020 02:00:00 24,7 16,7 22,7 25,3 19,9 7 4 13 7 ENE 1013,6 34 0,0
11.08.2020 01:00:00 25,1 16,8 23,4 25,7 19,9 2 1 16 9 NNW 1013,7 31 0,0
11.08.2020 00:00:00 26,4 16,9 23,9 26,1 19,9 2 1 10 5 S 1013,4 32 0,0
10.08.2020 23:00:00 28,0 16,0 26,7 26,6 19,9 10 5 26 14 NE 1013,1 36 0,0
10.08.2020 22:00:00 28,2 18,6 26,9 27,1 19,9 13 7 25 13 NNE 1013,1 23 0,0
10.08.2020 21:00:00 29,5 18,3 28,5 27,5 19,9 17 9 25 14 NNW 1012,2 22 0,0
10.08.2020 20:00:00 31,6 17,9 32,1 28,0 19,9 9 5 19 10 N 1011,9 31 0,0
10.08.2020 19:00:00 32,8 14,4 34,0 28,2 19,8 11 6 20 11 N 1011,9 55 0,0
10.08.2020 18:00:00 34,0 14,0 35,8 27,9 19,9 11 6 20 11 ENE 1012,1 56 0,0
10.08.2020 17:00:00 34,2 13,1 36,3 27,2 19,8 10 5 25 14 E 1012,4 35 0,0
10.08.2020 16:00:00 33,9 14,4 36,4 26,6 19,8 13 7 24 13 E 1012,7 31 0,0
10.08.2020 15:00:00 33,1 15,1 37,0 26,2 19,8 8 4 17 9 ENE 1013,2 49 0,0
10.08.2020 14:00:00 32,9 15,9 35,3 25,6 19,8 7 4 19 10 ENE 1013,3 49 0,0
10.08.2020 13:00:00 31,9 15,4 32,7 25,1 19,7 3 2 13 7 SSE 1013,6 56 0,0
10.08.2020 12:00:00 30,4 16,0 33,1 24,7 19,8 8 4 14 8 S 1013,8 45 0,0
10.08.2020 11:00:00 30,2 17,0 31,1 24,1 19,7 4 2 13 7 SW 1014,1 32 0,0
10.08.2020 10:00:00 27,6 16,9 29,1 23,8 19,7 8 4 17 9 SSE 1014,4 41 0,0
10.08.2020 09:00:00 26,6 16,8 25,7 23,7 19,7 9 5 14 8 ESE 1014,4 44 0,0
10.08.2020 08:00:00 23,4 17,4 21,4 24,0 19,7 6 3 23 13 E 1014,2 32 0,0
10.08.2020 07:00:00 22,6 16,8 20,1 24,4 19,7 10 5 16 9 NE 1013,5 34 0,0
10.08.2020 06:00:00 22,4 17,3 20,7 24,8 19,7 11 6 16 8 NNW 1012,9 42 0,0
10.08.2020 05:00:00 22,9 17,4 22,4 25,1 19,7 9 5 17 9 E 1013,1 41 0,0
10.08.2020 04:00:00 23,9 18,3 22,5 25,5 19,7 10 5 15 8 NE 1013,3 40 0,0
10.08.2020 03:00:00 24,0 18,0 22,3 26,0 19,7 4 2 45 25 WSW 1014,4 41 0,0
10.08.2020 02:00:00 25,3 18,0 21,1 26,6 19,6 21 11 36 19 S 1014,4 43 0,6
10.08.2020 01:00:00 26,0 18,2 25,1 27,4 19,6 19 10 32 18 S 1014,7 37 0,0
10.08.2020 00:00:00 26,9 17,7 20,9 28,2 19,6 17 9 35 19 ENE 1013,4 44 4,3
09.08.2020 23:00:00 29,6 15,3 29,3 28,7 19,6 15 8 24 13 ENE 1013,7 55 0,0
09.08.2020 22:00:00 30,8 14,8 30,4 29,3 19,6 17 9 34 18 NE 1013,4 56 0,0
09.08.2020 21:00:00 32,1 15,1 31,6 29,9 19,5 16 9 30 16 NE 1013,2 53 0,0
09.08.2020 20:00:00 33,7 15,2 35,7 30,4 19,6 18 10 29 16 NE 1012,8 53 0,0
09.08.2020 19:00:00 34,8 14,7 37,6 30,5 19,6 16 9 29 16 NE 1012,9 36 0,0
09.08.2020 18:00:00 36,0 14,1 37,3 30,3 19,5 12 7 33 18 E 1013,5 22 0,0
09.08.2020 17:00:00 35,3 14,0 40,1 29,8 19,5 18 10 34 18 NE 1014,0 19 0,0
09.08.2020 16:00:00 35,5 13,6 39,7 29,0 19,5 21 11 35 19 NE 1014,5 19 0,0
09.08.2020 15:00:00 35,5 14,7 40,4 28,1 19,5 20 11 35 19 E 1014,8 19 0,0
09.08.2020 14:00:00 34,7 13,5 36,7 27,1 19,5 22 12 41 22 ENE 1015,3 21 0,0
09.08.2020 13:00:00 34,5 13,9 38,3 26,1 19,5 25 14 45 25 ENE 1015,5 22 0,0
09.08.2020 12:00:00 32,7 13,8 37,4 25,4 19,4 18 10 32 17 ENE 1016,0 26 0,0
09.08.2020 11:00:00 30,8 14,8 34,0 24,8 19,4 12 7 25 13 ENE 1016,6 28 0,0
09.08.2020 10:00:00 28,6 14,8 27,1 24,6 19,4 13 7 21 12 NE 1016,9 30 0,0
09.08.2020 09:00:00 25,3 16,2 24,9 24,6 19,4 7 4 12 6 NNW 1017,2 21 0,0
09.08.2020 08:00:00 23,9 15,4 21,1 24,8 19,4 8 4 10 6 NNE 1016,9 32 0,0
09.08.2020 07:00:00 23,4 14,1 21,5 25,1 19,4 0 0 11 6 N 1016,9 30 0,0
09.08.2020 06:00:00 24,8 14,3 24,0 25,3 19,4 7 4 13 7 NNE 1016,5 40 0,0
09.08.2020 05:00:00 25,3 14,1 24,8 25,6 19,3 3 2 16 9 ENE 1016,7 38 0,0
09.08.2020 04:00:00 25,6 14,1 24,9 25,9 19,3 11 6 14 8 NE 1016,7 38 0,0
09.08.2020 03:00:00 26,1 14,2 25,4 26,3 19,3 11 6 17 9 NE 1016,8 26 0,0
09.08.2020 02:00:00 26,8 14,2 26,3 26,7 19,3 11 6 16 8 NE 1017,2 44 0,0
09.08.2020 01:00:00 27,3 14,3 26,5 27,1 19,3 10 5 19 10 NE 1017,3 43 0,0
09.08.2020 00:00:00 28,2 13,7 27,7 27,5 19,3 13 7 21 11 NE 1017,5 45 0,0
08.08.2020 23:00:00 28,8 13,5 28,4 28,0 19,3 14 8 20 11 NNE 1017,6 46 0,0
08.08.2020 22:00:00 29,6 13,4 29,1 28,6 19,3 13 7 27 14 NNE 1017,5 43 0,0
08.08.2020 21:00:00 30,9 13,7 30,4 29,2 19,3 19 10 36 20 NNE 1017,3 46 0,0
08.08.2020 20:00:00 32,4 14,1 32,9 29,7 19,2 18 10 30 16 N 1017,0 45 0,0
08.08.2020 19:00:00 34,8 11,2 36,2 30,0 19,2 4 2 18 10 E 1016,9 60 0,0
08.08.2020 18:00:00 35,6 10,6 37,8 30,3 19,2 8 5 21 12 E 1016,9 53 0,0
08.08.2020 17:00:00 36,9 11,0 40,5 29,8 19,2 6 3 27 15 SSE 1017,3 54 0,0
08.08.2020 16:00:00 36,7 11,5 41,5 28,9 19,2 8 4 20 11 S 1017,8 50 0,0
08.08.2020 15:00:00 36,4 11,3 41,6 27,7 19,2 5 3 22 12 W 1018,1 30 0,0
08.08.2020 14:00:00 35,2 12,2 39,0 26,5 19,2 11 6 22 12 ESE 1018,4 48 0,0
08.08.2020 13:00:00 35,6 12,5 39,6 25,3 19,1 7 4 19 10 ESE 1018,3 45 0,0
08.08.2020 12:00:00 34,3 12,0 36,0 24,4 19,2 5 3 13 7 SSE 1018,6 56 0,0
08.08.2020 11:00:00 32,6 13,8 32,7 23,6 19,1 4 2 12 7 NE 1018,8 50 0,0
08.08.2020 10:00:00 29,7 13,9 30,9 23,1 19,1 6 4 11 6 SSW 1019,1 46 0,0
08.08.2020 09:00:00 25,5 14,6 25,1 23,0 19,1 5 3 11 6 ESE 1018,8 28 0,0
08.08.2020 08:00:00 22,3 13,9 20,1 23,2 19,1 4 2 5 3 E 1018,7 36 0,0
08.08.2020 07:00:00 20,1 14,0 16,4 23,5 19,1 4 2 5 3 ENE 1018,5 25 0,0
08.08.2020 06:00:00 19,9 13,4 16,1 24,0 19,1 3 2 4 2 ESE 1018,2 26 0,0
08.08.2020 05:00:00 20,6 13,5 16,6 24,4 19,1 0 0 3 2 N 1018,2 31 0,0
08.08.2020 04:00:00 21,0 12,9 17,1 24,9 19,1 3 2 5 3 SSE 1018,1 31 0,0
08.08.2020 03:00:00 22,8 13,3 19,2 25,4 19,1 5 3 6 4 NE 1018,2 41 0,0
08.08.2020 02:00:00 24,5 13,1 22,4 26,0 19,0 3 2 10 5 NE 1018,1 52 0,0
08.08.2020 01:00:00 26,0 13,1 24,7 26,5 19,1 9 5 16 9 NE 1018,2 52 0,0
08.08.2020 00:00:00 27,3 13,3 24,7 27,1 19,0 13 7 18 10 NE 1018,0 60 0,0
07.08.2020 23:00:00 28,4 13,1 26,9 27,9 19,0 7 4 15 8 NE 1017,8 60 0,0
07.08.2020 22:00:00 30,0 12,9 25,9 28,7 19,0 12 7 25 14 NE 1017,4 60 0,0

tt = Température de l'air
td = dewpoint
tt 5cm = Température de l'air 5cm
tt -20cm = Température de l'air -20cm
tt -100cm = Température de l'air -100cm
ff = Vitesse du vent
fx = gusts
dd = Direction du vent
ppp = reduced air pressure
vv = visibility
rr = Quantités de précipitations

stations d'obs. à proximité